星链-31865 (STARLINK-31865 )

导读 | 星芒AI

STARLINK-31865 是 SpaceX Starlink 卫星互联网项目中的一颗低轨卫星,属于 Starlink 群体部署的一部分。该卫星由 SpaceX 制造并发射,旨在为全球用户提供高速互联网服务,尤其关注网络覆盖不足的地区。它运行在约 550 公里的轨道高度,配备先进通信设备,支持宽带数据传输。STARLINK-31865 的部署有助于增强 Starlink 网络的稳定性和覆盖范围,提升用户体验。该卫星项目也引发了对太空拥堵和光污染的讨论。

基本信息
目录编号:
59791
目录名称:
STARLINK-31865
国际标识:
2024-093K
轨道中心:
EARTH
卫星名称:
星链-31865
卫星全名:
星链-31865 (STARLINK-31865 )
卫星状态:
在轨 (已飞行533 天)
发射日期:
2024-05-18 UTC
国别 :
美国 (US)
星等 :
--
轨道信息
数据来源 国际轨道数据 AOE轨道数据
星历时间 2025-11-01T09:20:03+0800
1天前
查看轨道信息
2025-10-31T21:00:00+0800
1天前
查看轨道信息
半长轴 6861.258km 6861.196km
偏心率 0.0002018 0.0004042
轨道倾角 43.002° 42.996°
近地点辐角 294.770° 282.022°
升交点赤经 215.257° 218.162°
平近点角 65.294° 128.578°
近地点 481.738km 480.287km
远地点 484.508km 485.835km
周期 94.268分钟 94.267分钟
每日圈数 15.275562 15.275767
详细信息
固有亮度:
5
最大亮度:
1.5
卫星平台:
Starlink v2.0 mini
覆盖范围:
全球
运营商:
太空探索技术公司
运营商所在国:
美国
制造商(研发单位):
太空探索技术公司
制造商所在国:
美国
使用方式:
暂无
卫星简介
星链(Starlink)计划是由太空探索技术公司(SpaceX)提出的一个巨型低轨卫星互联网星座项目,计划在2019年至2024年间在太空搭建由约1.2万颗卫星组成的“星链”网络,其中1584颗将部署在地球上空550千米处的近地轨道,并从2020年开始工作。该卫星仍在工作。
2D轨道图
3D轨道图
轨道高度分析图
轨道倾角分析图
轨道综合分析图
查看轨道综合分析图